CZ-6A DEB, 56619

Orbit data source: Space-Track

CZ-6A DEB, 56619 is space debris in SSO originally from a launch on Fri, 11 Nov 2022 UTC launched from the Taiyaun Space Center, China (TSC). Debris objects in space refer to the collection of defunct objects orbiting the Earth. Examples of debris include non-operational satellites, rocket bodies, and fragments generated from explosions, collisions, or faulty payload assembly.

Loading next visibility...
Identifier
56619, 2022-151AET
Orbit
SSO
Country
Flag of CNCN / PRC
Related business
Manufacturer
SAST
Mission
Spacecraft
Bus & Motor
Unknown
Mass
Unknown
Launch date (UTC)
2022-11-11 (4 years ago)
Launch vehicle
Unknown
Launch site
Taiyaun Space Center, China (TSC)
Object type
Payload
Rocket body
Debris
Shape & HBR
Unknown shape, 0.1 m
Radar Cross Section
Small (<0.1 m²)

Expand to show TLE details & history
Last TLE update: 1 week ago

TLE from 1 week ago
0 CZ-6A DEB
1 56619U 22151AET 26166.74000740  .00000249  00000-0  10858-3 0  9991
2 56619  98.5666 168.5499 0076073  48.8571 311.9143 14.30518057164341
Epoch: 2026-06-15T17:45Z
TLE epoch observation values (Epoch: 2026-06-15T17:45:36.639Z)
Latitude
-0.00008°
Longitude
-1.87481°
Altitude
756.73 km
Speed
7.495 km/s
True Right ascension
11h 14m 11s
True Declination
0° 00' 00"
Sunlit
Object was in daylight at epoch
Visualization orbit readout
Latitude
Unknown
Longitude
Unknown
Altitude
Unknown
Speed
Unknown
Apparent Right ascension
Unknown
Apparent Declination
Unknown
Sunlit
N/A
Visualization observer readout
Local Sidereal Time
21:56:20
Azimuth
Unknown
Elevation
Unknown
Doppler factor
Unknown
Orbital elements
Apogee altitude
841.646 km
Perigee altitude
732.629 km
Semi-major axis
7,165.274 km
Eccentricity
0.00761
Inclination
98.5666°
RAAN
168.5499°
Arg. of periapsis
48.8571°
True anomaly
311.26147°
Mean anomaly
311.9143°
Eccentric anomaly
311.5883°
Mean motion
3.57844 °/min
Orbital period
100.6 mins
BSTAR
0.00010858
Loading maneuver chart data...
Computing Atmospheric mass density...
Loading historical data...
Loading historical data...
Loading historical data...
Loading historical data...
Loading historical data...
Loading historical data...
Loading historical data...

Documentation

Showing up to 5 results
|